Flag for Azerbaijan Weather past 2 weeks in Sumqayit, Azerbaijan

55 °F

Light rain. Mostly cloudy.

Feels Like: 55 °F
Forecast: 56 / 62 °F
Wind: 1 mph from Southeast

Location: Baku / Bine Airport

Current Time: Oct 10, 2015 at 7:29:03 AM

Latest Report: Oct 10, 2015 at 7:00 AM

Visibility: 4 mi

Pressure: 29.98 "Hg

Humidity: 100%

Dew point: 55 °F

Location of SumqayitLocation

Historic Weather in Sumqayit — Graph


Sumqayit temperature yesterday

Maximum temperature yesterday: 57 °F (at 9:00 AM)
Minimum temperature yesterday: 54 °F (at 11:00 AM)
Average temperature yesterday: 56 °F

Past Weeks' High & Low Weather Summary

High86 °F (Sep 27, 12:00 PM)100% (Sep 28, 7:30 AM)30.21 "Hg (Sep 28, 7:30 AM)
Low54 °F (Oct 9, 11:00 AM)21% (Sep 26, 3:00 PM)29.47 "Hg (Oct 8, 5:00 AM)
Average70 °F71%30.01 "Hg
* Reported Sep 25 6:00 AM — Oct 10 6:00 AM, Sumqayit, Weather by CustomWeather, © 2015

Note: Actual official high and low records may vary slightly from our data, if they occured in-between our weather recording intervals... More about our weather records


Sumqayit weather history for previous 24 hours

Time TempWeatherWind HumidityBarometerVisibility
6:00 AM
Sat, Oct 10
55 °FMostly cloudy.6 mph94%29.98 "HgN/A
5:30 AM55 °FLight rain. Mostly cloudy.7 mph94%29.98 "Hg3 mi
5:00 AM55 °FLight rain. Mostly cloudy.6 mph94%29.98 "Hg4 mi
4:30 AM55 °FLight rain. Mostly cloudy.7 mph94%29.98 "Hg4 mi
4:00 AM55 °FLight rain. Mostly cloudy.7 mph94%29.98 "Hg4 mi
3:30 AM55 °FLight rain. Mostly cloudy.6 mph94%29.98 "Hg3 mi
3:00 AM55 °FLight rain. Mostly cloudy.No wind94%30.01 "Hg3 mi
2:00 AM57 °FLight rain. Overcast.2 mph82%30.01 "Hg5 mi
1:30 AM57 °FOvercast.6 mph82%29.98 "HgN/A
1:00 AM57 °FOvercast.7 mph77%29.98 "HgN/A
12:30 AM57 °FOvercast.6 mph77%30.01 "HgN/A
12:00 AM57 °FOvercast.7 mph77%30.01 "HgN/A
11:30 PM
Fri, Oct 9
57 °FOvercast.8 mph77%30.01 "HgN/A
11:00 PM57 °FOvercast.8 mph77%30.04 "HgN/A
10:30 PM57 °FOvercast.8 mph77%30.04 "HgN/A
10:00 PM57 °FOvercast.7 mph77%30.04 "HgN/A
9:30 PM57 °FOvercast.6 mph77%30.04 "HgN/A
9:00 PM57 °FOvercast.7 mph77%30.04 "HgN/A
8:30 PM57 °FOvercast.8 mph77%30.04 "HgN/A
7:30 PM57 °FOvercast.6 mph77%30.04 "HgN/A
7:00 PM57 °FOvercast.6 mph72%30.04 "HgN/A
6:30 PM57 °FOvercast.7 mph72%30.04 "HgN/A
6:00 PM57 °FOvercast.7 mph72%30.04 "HgN/A
5:30 PM57 °FOvercast.7 mph72%30.04 "HgN/A
5:00 PM57 °FOvercast.9 mph72%30.04 "HgN/A
4:30 PM57 °FOvercast.8 mph72%30.04 "HgN/A
4:00 PM57 °FOvercast.9 mph72%30.04 "HgN/A
3:30 PM57 °FOvercast.10 mph72%30.04 "HgN/A
3:00 PM57 °FOvercast.12 mph72%30.04 "HgN/A
2:30 PM55 °FOvercast.13 mph77%30.07 "HgN/A
2:00 PM55 °FOvercast.9 mph82%30.07 "HgN/A
1:30 PM55 °FOvercast.7 mph82%30.09 "HgN/A
1:00 PM54 °FMore clouds than sun.7 mph94%30.09 "HgN/A
12:30 PM54 °FLight rain. Mostly cloudy.9 mph94%30.12 "Hg5 mi
12:00 PM54 °FLight rain. Mostly cloudy.13 mph94%30.12 "Hg5 mi
11:30 AM54 °FSprinkles. Mostly cloudy.9 mph94%30.12 "Hg5 mi
11:00 AM54 °FSprinkles. More clouds than sun.10 mph94%30.12 "HgN/A
10:30 AM55 °FSprinkles. More clouds than sun.12 mph82%30.15 "HgN/A
10:00 AM55 °FSprinkles. Overcast.14 mph72%30.15 "HgN/A
9:30 AM57 °FSprinkles. Overcast.16 mph63%30.15 "HgN/A
9:00 AM57 °FOvercast.15 mph59%30.15 "HgN/A
8:30 AM55 °FOvercast.17 mph63%30.15 "HgN/A
8:00 AM55 °FOvercast.16 mph63%30.15 "HgN/A
7:30 AM55 °FOvercast.17 mph63%30.15 "HgN/A
7:00 AM55 °FOvercast.20 mph63%30.15 "HgN/A
Weather by CustomWeather, © 2015

See weather overviewHow to use our weather pages